Date String (YYYY-MM-DD hh:mm:ss) UTC,Instrument flags,Ambient pressure (hPa),Sample flow (lpm),Bypass flow (lpm),Sample temperature (°C),Ambient temperature (°C),ASC tube jacket temperature (°C),LED temperature (°C),Box temperature (°C),Sample RH (%),Span deviation,Mass concentration (μg/m³),Mass concentration (μg/m³),Mass concentration (μg/m³)
DateTimeUTC,F1_M11,P_M11,Q1_M11,Q2_M11,T1_M11,T2_M11,T3_M11,T4_M11,T5_M11,U1_M11,ZSPAN_M11,X0_M11,X2_M11,X1_M11
2023-05-14 06:00:00,,0839.9,5.00,0.00,29.6,27.9,00.0,38.0,31.1,25.9,-000.5,0005.88,0003.78,0003.61
2023-05-14 06:01:00,,0839.9,4.99,0.00,29.6,27.9,00.0,38.0,31.1,25.9,-000.1,0005.94,0003.80,0003.62
2023-05-14 06:02:00,,0839.9,4.99,0.00,29.6,27.9,00.0,38.0,31.1,25.9,0000.2,0005.90,0003.79,0003.61
2023-05-14 06:03:00,,0840.0,5.00,0.00,29.6,27.9,00.0,38.0,31.1,25.9,0000.6,0005.81,0003.77,0003.61
2023-05-14 06:04:00,,0840.0,5.01,0.00,29.6,28.0,00.0,38.0,31.1,25.9,0000.5,0005.75,0003.75,0003.58
2023-05-14 06:05:00,,0840.0,5.00,0.00,29.6,28.0,00.0,38.0,31.1,25.9,0000.4,0005.65,0003.72,0003.56
2023-05-14 06:06:00,,0840.0,4.99,0.00,29.6,27.9,00.0,38.0,31.1,25.9,0000.4,0005.48,0003.68,0003.53
2023-05-14 06:07:00,,0840.0,5.00,0.00,29.6,27.9,00.0,38.0,31.1,26.0,0000.6,0005.41,0003.66,0003.51
2023-05-14 06:08:00,,0839.9,5.02,0.00,29.6,27.9,00.0,38.0,31.1,25.9,0000.8,0005.29,0003.62,0003.49
2023-05-14 06:09:00,,0840.0,5.00,0.00,29.6,27.9,00.0,38.0,31.1,25.8,0001.0,0005.14,0003.57,0003.45
2023-05-14 06:10:00,,0840.0,5.00,0.00,29.6,27.9,00.0,38.0,31.1,25.9,0001.2,0005.01,0003.51,0003.38
2023-05-14 06:11:00,,0839.9,5.00,0.00,29.6,27.9,00.0,38.0,31.1,25.8,0001.1,0004.81,0003.45,0003.32
2023-05-14 06:12:00,,0839.9,5.00,0.00,29.6,27.9,00.0,38.0,31.1,25.8,0000.7,0004.68,0003.39,0003.26
2023-05-14 06:13:00,,0839.9,5.00,0.00,29.6,27.9,00.0,38.0,31.1,25.8,0001.0,0004.49,0003.32,0003.20
2023-05-14 06:14:00,,0839.9,5.01,0.00,29.6,27.9,00.0,38.0,31.1,25.8,0000.3,0004.49,0003.27,0003.14
2023-05-14 06:15:00,,0839.9,4.99,0.00,29.6,27.9,00.0,38.0,31.1,25.8,0000.2,0004.33,0003.20,0003.05
2023-05-14 06:16:00,,0840.0,4.99,0.00,29.5,27.9,00.0,38.0,31.1,25.8,0000.8,0004.25,0003.15,0002.97
2023-05-14 06:17:00,,0840.0,5.01,0.00,29.5,27.9,00.0,38.0,31.1,25.8,0001.2,0004.17,0003.11,0002.88
2023-05-14 06:18:00,,0840.0,5.01,0.00,29.5,27.9,00.0,37.9,31.0,25.7,0001.1,0004.07,0003.03,0002.77
2023-05-14 06:19:00,,0840.0,5.00,0.00,29.5,27.9,00.0,37.9,31.0,25.7,0001.0,0003.90,0002.91,0002.67
2023-05-14 06:20:00,,0840.0,5.00,0.00,29.5,27.9,00.0,37.9,31.1,25.7,0000.5,0003.82,0002.82,0002.59
2023-05-14 06:21:00,,0840.1,5.00,0.00,29.5,27.9,00.0,37.9,31.0,25.7,0000.3,0003.67,0002.72,0002.51
2023-05-14 06:22:00,,0840.1,4.99,0.00,29.5,27.9,00.0,37.9,31.0,25.7,0000.1,0003.60,0002.65,0002.43
2023-05-14 06:23:00,,0840.1,4.99,0.00,29.5,27.9,00.0,37.9,31.0,25.7,0000.0,0003.57,0002.59,0002.36
2023-05-14 06:24:00,,0840.1,5.00,0.00,29.5,27.9,00.0,37.9,31.0,25.7,0000.0,0003.50,0002.52,0002.29
2023-05-14 06:25:00,,0840.1,5.02,0.00,29.5,27.9,00.0,37.9,31.0,25.7,-000.3,0003.34,0002.46,0002.24
2023-05-14 06:26:00,,0840.2,5.00,0.00,29.5,27.9,00.0,37.9,31.0,25.7,-000.5,0003.26,0002.40,0002.17
2023-05-14 06:27:00,,0840.2,4.99,0.00,29.5,27.9,00.0,37.9,31.0,25.7,-000.5,0003.17,0002.34,0002.13
2023-05-14 06:28:00,,0840.1,5.00,0.00,29.5,27.8,00.0,37.9,31.0,25.7,-000.6,0003.13,0002.29,0002.07
2023-05-14 06:29:00,,0840.1,5.01,0.00,29.5,27.8,00.0,37.9,31.0,25.7,-000.8,0003.07,0002.24,0002.02
2023-05-14 06:30:00,,0840.1,5.00,0.00,29.5,27.8,00.0,37.9,31.0,25.7,-001.0,0003.02,0002.19,0001.97
2023-05-14 06:31:00,,0840.1,4.99,0.00,29.5,27.8,00.0,37.9,31.0,25.7,-000.5,0002.90,0002.12,0001.92
2023-05-14 06:32:00,,0840.1,5.01,0.00,29.5,27.8,00.0,37.9,31.0,25.7,-001.1,0002.80,0002.04,0001.85
2023-05-14 06:33:00,,0840.0,5.01,0.00,29.5,27.8,00.0,37.9,31.0,25.7,-001.4,0002.75,0002.00,0001.80
2023-05-14 06:34:00,,0840.1,4.99,0.00,29.5,27.8,00.0,37.9,31.0,25.7,-000.3,0002.62,0001.93,0001.75
2023-05-14 06:35:00,,0840.0,4.99,0.00,29.5,27.8,00.0,37.9,31.0,25.7,-000.3,0002.57,0001.88,0001.70
2023-05-14 06:36:00,,0840.0,5.00,0.00,29.5,27.8,00.0,37.9,31.0,25.7,0000.0,0002.55,0001.83,0001.64
2023-05-14 06:37:00,,0840.1,5.00,0.00,29.5,27.8,00.0,37.9,31.0,25.7,0000.0,0002.55,0001.82,0001.61
2023-05-14 06:38:00,,0840.1,5.00,0.00,29.5,27.8,00.0,37.9,31.0,25.7,0000.0,0002.50,0001.78,0001.58
2023-05-14 06:39:00,,0840.1,4.99,0.00,29.5,27.8,00.0,37.9,31.0,25.6,0000.0,0002.39,0001.72,0001.53
2023-05-14 06:40:00,,0840.1,5.00,0.00,29.5,27.8,00.0,37.9,31.0,25.7,0000.0,0002.27,0001.65,0001.48
2023-05-14 06:41:00,,0840.1,5.01,0.00,29.5,27.8,00.0,37.9,31.0,25.7,0000.0,0002.22,0001.61,0001.43
2023-05-14 06:42:00,,0840.1,5.00,0.00,29.5,27.8,00.0,37.9,31.0,25.7,0000.0,0002.27,0001.62,0001.42
2023-05-14 06:43:00,,0840.1,4.99,0.00,29.5,27.8,00.0,37.9,31.0,25.7,0000.0,0002.30,0001.62,0001.40
2023-05-14 06:44:00,,0840.1,5.00,0.00,29.5,27.8,00.0,37.9,31.0,25.7,0000.0,0002.31,0001.61,0001.38
2023-05-14 06:45:00,,0840.1,5.01,0.00,29.5,27.8,00.0,37.9,31.0,25.7,0000.0,0002.28,0001.59,0001.37
2023-05-14 06:46:00,,0840.1,5.00,0.00,29.5,27.8,00.0,37.9,31.0,25.7,0000.0,0002.24,0001.57,0001.37
2023-05-14 06:47:00,,0840.1,4.98,0.00,29.5,27.8,00.0,37.9,31.0,25.7,0000.0,0002.18,0001.56,0001.36
2023-05-14 06:48:00,,0840.1,5.01,0.00,29.5,27.8,00.0,37.8,31.0,25.8,0000.0,0002.06,0001.51,0001.33
2023-05-14 06:49:00,,0840.1,5.01,0.00,29.5,27.8,00.0,37.8,31.0,25.8,0000.0,0002.04,0001.49,0001.31
2023-05-14 06:50:00,,0840.1,5.00,0.00,29.4,27.8,00.0,37.8,31.0,25.7,0000.0,0002.05,0001.49,0001.31
2023-05-14 06:51:00,,0840.1,4.99,0.00,29.4,27.8,00.0,37.8,31.0,25.7,0000.0,0002.02,0001.47,0001.30
2023-05-14 06:52:00,,0840.1,5.00,0.00,29.4,27.8,00.0,37.8,31.0,25.7,0000.0,0002.03,0001.47,0001.29
2023-05-14 06:53:00,,0840.2,5.01,0.00,29.4,27.8,00.0,37.8,31.0,25.7,0000.0,0001.93,0001.42,0001.26
2023-05-14 06:54:00,,0840.1,5.01,0.00,29.4,27.8,00.0,37.8,31.0,25.7,0000.0,0001.87,0001.39,0001.25
2023-05-14 06:55:00,,0840.2,4.99,0.00,29.4,27.8,00.0,37.8,31.0,25.7,0000.0,0001.86,0001.38,0001.24
2023-05-14 06:56:00,,0840.2,4.99,0.00,29.4,27.8,00.0,37.8,31.0,25.7,0000.0,0001.86,0001.38,0001.22
2023-05-14 06:57:00,,0840.1,5.02,0.00,29.4,27.8,00.0,37.8,31.0,25.7,0000.0,0003.04,0001.38,0001.20
2023-05-14 06:58:00,,0840.1,5.00,0.00,29.4,27.8,00.0,37.8,31.0,25.7,0000.0,0003.10,0001.35,0001.19
2023-05-14 06:59:00,,0840.1,4.99,0.00,29.4,27.8,00.0,37.8,31.0,25.8,0000.0,0003.09,0001.34,0001.19
